Voltar ao catálogo

LUCH

OLYMP

AtivoMilitarGEO
NORAD 40258·PAYLOAD·🇷🇺 Russia

Lançado Sep 27, 2014 de Baikonur Cosmodrome

Loading…

TLE

AtualizadoSource: Space-Track

Época: Sep 14, 2026, 00:39 UTC

1 40258U 14058A   26257.02712321 -.00000181  00000-0  00000+0 0  9997
2 40258   2.1215  81.5098 0002816 140.5763 252.8136  0.99112632 41854

Acompanhe LUCH em tempo real com AllMySat

Download on the App Store